Weather History for KBUF - March, 2014

Change the Weather History Date:

Wednesday, March 12, 2014

  Actual Average Record
Temperature  
Mean Temperature 25 °F 32 °F  
Max Temperature 39 °F 40 °F 69 °F (2012)
Min Temperature 11 °F 25 °F -2 °F (1960)
Degree Days  
Heating Degree Days 40 33  
Month to date heating degree days 516 412  
Since 1 July heating degree days 5622 5156  
Cooling Degree Days 0 0  
Month to date cooling degree days 0 0  
Year to date cooling degree days 0 0  
Moisture  
Dew Point 22 °F    
Average Humidity 88    
Maximum Humidity 96    
Minimum Humidity 80    
Precipitation  
Precipitation 0.95 in 0.09 in 0.95 in (2014)
Month to date precipitation 1.19 1.08  
Year to date precipitation 7.97 6.75  
Snow  
Snow 13.80 in 0.50 in 13.80 in (2014)
Month to date snowfall 16.4 6.3  
Since 1 July snowfall 120.6 85.1  
Snow Depth T in    
Sea Level Pressure  
Sea Level Pressure 29.59 in    
Wind  
Wind Speed 16 mph (NNE)    
Max Wind Speed 36 mph    
Max Gust Speed 47 mph    
Visibility 1 miles    
Events Fog , Rain , Snow    
T = Trace of Precipitation, MM = Missing Value Source: NWS Daily Summary

Daily Weather History Graph

Daily Weather History Graph

Search for Another Location

Airport or City:

Trip Planner

Search our weather history database for the weather conditions in past years. The results will help you decide how hot, cold, wet, or windy it might be!

Date:

Astronomy

Mar. 12, 2014 Rise Set
Actual Time 7:32 AM EDT 7:17 PM EDT
Civil Twilight 7:04 AM EDT 7:46 PM EDT
Nautical Twilight 6:31 AM EDT 8:18 PM EDT
Astronomical Twilight 5:57 AM EDT 8:52 PM EDT
Moon 3:42 PM EDT (3/12) 5:07 AM EDT (3/12)
Length of Visible Light 12h 41m
Length of Day
11h 45m
Waxing Gibbous, 85% of the Moon is Illuminated
Mar 12
Waxing Gibbous
Mar 16
Full
Mar 23
Last Quarter
Mar 30
New
Apr 7
First Quarter

Hourly Weather History & Observations

Time (EDT) Temp. Windchill Dew Point Humidity Pressure Visibility Wind Dir Wind Speed Gust Speed Precip Events Conditions
12:54 AM 39.0 °F 36.8 °F 36.0 °F 89% 29.71 in 3.0 mi West 3.5 mph - 0.01 in Rain Light Rain
1:54 AM 37.9 °F - 36.0 °F 93% 29.70 in 2.5 mi Calm Calm - 0.02 in Rain Light Rain
1:56 AM 37.9 °F - 36.0 °F 93% 29.69 in 2.5 mi Calm Calm - 0.00 in Rain Light Rain
2:54 AM 36.0 °F 29.6 °F 32.0 °F 86% 29.71 in 2.5 mi NE 8.1 mph - 0.04 in Rain Rain
3:52 AM 33.8 °F 27.7 °F 30.2 °F 87% 29.66 in 1.2 mi NE 6.9 mph - 0.08 in Snow Light Snow
3:54 AM 33.1 °F 27.7 °F 30.9 °F 92% 29.68 in 1.2 mi NE 5.8 mph - 0.08 in Snow Light Snow
4:21 AM 33.1 °F 26.1 °F 32.0 °F 96% 29.63 in 2.0 mi NE 8.1 mph - 0.02 in Snow Light Snow
4:54 AM 33.1 °F 24.9 °F 32.0 °F 96% 29.62 in 2.0 mi NE 10.4 mph - 0.03 in Snow Light Snow
5:12 AM 33.1 °F 25.5 °F 32.0 °F 96% 29.60 in 4.0 mi NE 9.2 mph - 0.00 in Snow Light Snow
5:54 AM 33.1 °F 24.4 °F 32.0 °F 96% 29.60 in 6.0 mi NE 11.5 mph - 0.00 in Snow Light Snow
6:54 AM 33.1 °F 23.4 °F 32.0 °F 96% 29.58 in 4.0 mi NE 13.8 mph 20.7 mph 0.00 in Snow Light Snow
7:28 AM 33.1 °F 22.6 °F 30.9 °F 92% 29.56 in 2.5 mi NE 16.1 mph - 0.01 in Snow Light Snow
7:39 AM 33.1 °F 23.4 °F 30.9 °F 92% 29.55 in 1.5 mi NE 13.8 mph 23.0 mph 0.01 in Snow Light Snow
7:54 AM 32.0 °F 21.2 °F 30.9 °F 96% 29.57 in 1.2 mi NE 16.1 mph - 0.02 in Snow Light Snow
8:03 AM 32.0 °F 20.5 °F 30.0 °F 92% 29.56 in 0.8 mi NE 18.4 mph 25.3 mph 0.00 in Snow Light Snow
8:54 AM 30.9 °F 17.5 °F 28.9 °F 92% 29.57 in 0.2 mi NE 24.2 mph 32.2 mph 0.06 in Fog , Snow Heavy Snow
9:45 AM 28.0 °F 13.6 °F 25.0 °F 88% 29.57 in 0.1 mi NE 24.2 mph 35.7 mph 0.04 in Snow Heavy Snow
9:54 AM 27.0 °F 12.8 °F 25.0 °F 92% 29.58 in 0.1 mi NE 21.9 mph 31.1 mph 0.05 in Snow Heavy Snow
10:00 AM 27.0 °F 11.9 °F 25.0 °F 92% 29.54 in 0.1 mi NE 25.3 mph 34.5 mph 0.01 in Snow Heavy Snow
10:12 AM 27.0 °F 12.5 °F 25.0 °F 92% 29.53 in 0.1 mi NE 23.0 mph 40.3 mph 0.02 in Snow Heavy Snow
10:39 AM 27.0 °F 11.6 °F 24.1 °F 89% 29.51 in 0.1 mi NE 26.5 mph 35.7 mph 0.05 in Snow Heavy Snow
10:54 AM 27.0 °F 13.5 °F 25.0 °F 92% 29.53 in 0.2 mi NE 19.6 mph 31.1 mph 0.07 in Snow Heavy Snow
11:11 AM 27.0 °F 11.6 °F 24.1 °F 89% 29.48 in 0.1 mi NE 26.5 mph 36.8 mph 0.01 in Snow Heavy Snow
11:36 AM 26.1 °F 10.7 °F 24.1 °F 92% 29.47 in 0.2 mi NE 25.3 mph 42.6 mph 0.03 in Snow Heavy Snow
11:54 AM 26.1 °F 10.7 °F 24.1 °F 92% 29.47 in 0.5 mi NE 25.3 mph 33.4 mph 0.03 in Snow Snow
12:36 PM 25.0 °F 9.9 °F 23.0 °F 92% 29.44 in 0.1 mi NNE 23.0 mph 42.6 mph 0.01 in Snow Heavy Snow
12:54 PM 25.0 °F 10.9 °F 21.9 °F 88% 29.47 in 0.1 mi NNE 19.6 mph 33.4 mph 0.02 in Snow Heavy Snow
1:12 PM 24.1 °F 8.7 °F 21.0 °F 88% 29.45 in 0.1 mi NNE 23.0 mph 38.0 mph 0.00 in Snow Heavy Snow
1:54 PM 23.0 °F 7.2 °F 21.0 °F 92% 29.44 in 0.1 mi NE 23.0 mph 38.0 mph 0.03 in Snow Heavy Snow
2:24 PM 23.0 °F 8.0 °F 19.9 °F 88% 29.41 in 0.1 mi NNE 20.7 mph 39.1 mph 0.02 in Snow Heavy Snow
2:54 PM 21.9 °F 5.8 °F 19.9 °F 92% 29.41 in 0.2 mi NNE 23.0 mph 33.4 mph 0.04 in Snow Heavy Snow
3:16 PM 21.9 °F 5.5 °F 19.0 °F 89% 29.39 in 0.1 mi NNE 24.2 mph 35.7 mph 0.00 in Snow Heavy Snow
3:26 PM 21.0 °F 5.7 °F 19.0 °F 92% 29.43 in 0.2 mi NNE 19.6 mph 28.8 mph 0.00 in Snow Heavy Snow
3:54 PM 19.9 °F 3.5 °F 17.1 °F 89% 29.46 in 0.5 mi NNE 21.9 mph 35.7 mph 0.01 in Snow Snow
4:54 PM 19.0 °F 2.4 °F 15.1 °F 85% 29.51 in 0.2 mi North 21.9 mph 33.4 mph 0.00 in Snow Heavy Snow
5:04 PM 19.0 °F 1.6 °F 15.1 °F 85% 29.50 in 0.2 mi North 24.2 mph 36.8 mph 0.00 in Snow Heavy Snow
5:54 PM 17.1 °F 2.0 °F 12.9 °F 84% 29.58 in 0.2 mi North 16.1 mph 29.9 mph 0.01 in Snow Heavy Snow
6:37 PM 16.0 °F 0.1 °F 12.0 °F 84% 29.59 in 0.2 mi North 17.3 mph 25.3 mph 0.01 in Snow Heavy Snow
6:54 PM 16.0 °F -0.9 °F 12.0 °F 84% 29.63 in 0.2 mi North 19.6 mph 26.5 mph 0.01 in Snow Heavy Snow
7:36 PM 15.1 °F -1.6 °F 10.9 °F 84% 29.64 in 1.0 mi North 18.4 mph 25.3 mph 0.00 in Snow Light Snow
7:54 PM 15.1 °F 1.8 °F 10.9 °F 84% 29.68 in 0.8 mi North 11.5 mph - 0.01 in Snow Light Snow
8:19 PM 15.1 °F 1.1 °F 10.9 °F 84% 29.67 in 1.0 mi North 12.7 mph - 0.00 in Snow Light Snow
8:32 PM 15.1 °F -0.6 °F 10.9 °F 84% 29.68 in 0.8 mi NNW 16.1 mph 26.5 mph 0.00 in Snow Light Snow
8:54 PM 14.0 °F -3.0 °F 10.0 °F 84% 29.73 in 1.0 mi North 18.4 mph - 0.00 in Snow Light Snow
9:17 PM 14.0 °F -0.2 °F 10.0 °F 84% 29.71 in 0.8 mi NNW 12.7 mph 24.2 mph 0.00 in Snow Light Snow
9:37 PM 14.0 °F -2.5 °F 9.0 °F 80% 29.72 in 1.2 mi North 17.3 mph - 0.00 in Snow Light Snow
9:54 PM 14.0 °F -1.4 °F 9.0 °F 80% 29.77 in 1.2 mi NNW 15.0 mph - 0.00 in Snow Light Snow
10:45 PM 12.9 °F -2.8 °F 9.0 °F 84% 29.75 in 0.8 mi North 15.0 mph - 0.00 in Snow Light Snow
10:54 PM 12.9 °F -2.8 °F 9.0 °F 84% 29.79 in 1.0 mi NNW 15.0 mph - 0.00 in Snow Light Snow
11:24 PM 12.0 °F -4.0 °F 8.1 °F 84% 29.75 in 1.2 mi NNW 15.0 mph - 0.00 in Snow Light Snow
11:54 PM 12.0 °F -2.7 °F 8.1 °F 84% 29.79 in 1.2 mi NNW 12.7 mph - 0.00 in Snow Light Snow